Location: ?????????
(48.4691°N, 33.1600°E)
Time: 09:21:53
(UTC+00:00)

Daily predictions for brighter satellites

Satellite Brightness Start Highest point End
(mag) Time Altitude Azimuth Time Altitude Azimuth Time Altitude Azimuth
SL-16 R/B 4.5 14:18:26 10° N 14:23:14 24° NW 14:27:59 10° WSW
Meteor 1-25 Rocket 4.3 14:18:19 10° N 14:23:59 66° ENE 14:29:40 10° SSE
Cosmos 2181 Rocket 4.3 14:17:54 10° SSE 14:24:03 52° E 14:30:08 10° NNE
Cosmos 1782 3.7 14:23:31 10° SSE 14:26:58 29° E 14:30:27 10° NNE
SL-23 DEB 4.4 14:28:23 10° SW 14:31:40 48° SE 14:36:30 10° ENE
ASTRO F (AKARI) 4.5 14:32:18 10° S 14:35:29 74° WSW 14:38:37 10° NNW
Cosmos 1867 4.5 14:30:24 10° WSW 14:35:35 43° NW 14:40:49 10° NNE
NOAA 12 4.3 14:33:05 10° SE 14:38:11 50° ENE 14:43:19 10° N
Okean O Rocket 2.0 14:34:27 10° SE 14:38:32 40° ENE 14:42:41 10° N
CORIOLIS 4.5 14:33:30 10° SE 14:38:39 46° ENE 14:43:50 10° N
SMAP 3.3 14:34:16 10° SE 14:38:43 47° ENE 14:43:11 10° N
USA 267 3.9 14:37:05 10° ENE 14:43:09 42° N 14:49:14 10° WNW
Cosmos 2219 Rocket 4.4 14:40:40 10° WNW 14:43:42 15° NNW 14:46:47 10° N
Cosmos 2263 4.2 14:39:17 10° NNW 14:44:52 63° ENE 14:50:25 10° SE
ADEOS Rocket 3.7 14:37:24 10° NNE 14:45:16 87° ESE 14:52:53 10° SSW
CRYOSAT 2 4.3 14:40:45 10° N 14:45:41 78° E 14:50:35 10° S
Radarsat Rocket 4.3 14:39:23 10° SSE 14:45:44 80° ENE 14:53:01 10° NNW
Cosmos 1933 3.4 14:42:01 10° S 14:46:05 84° WNW 14:50:12 10° N
Okean-O 4.3 14:45:28 10° E 14:47:44 14° ENE 14:49:59 10° NNE
CZ-4C R/B 3.0 14:44:30 10° NNE 14:48:08 69° ESE 14:51:41 10° S
Lacrosse 5 rocket 2.2 14:45:42 10° W 14:49:01 32° NNW 14:52:05 11° NE
Cosmos 1151 Rocket 2.9 14:44:49 10° S 14:49:05 81° E 14:53:22 10° NNE
Cosmos 2366 rocket 3.9 14:43:33 10° N 14:49:45 77° E 14:55:54 10° SSE
Lacrosse 4 Rocket 3.1 14:51:02 10° SE 14:53:32 16° ESE 14:55:12 13° E
BREEZE-M DEB (TANK) 1.5 14:51:38 10° W 14:53:46 79° N 14:55:36 15° ENE
Cosmos 2218 Rocket 4.0 14:48:17 10° N 14:54:29 86° E 15:00:40 10° S
Cosmos 2333 Rocket 4.5 14:55:59 10° NW 14:58:12 12° NNW 15:00:25 10° N
CENTAUR R/B 3.5 14:53:49 10° SSE 14:58:40 27° ESE 15:03:09 14° ENE
ISS -3.8 14:57:43 10° WNW 15:01:05 75° NNE 15:04:03 13° ESE
Cosmos 1943 Rocket 3.3 14:56:13 10° NW 15:01:34 49° WSW 15:06:55 10° S
YAOGAN 1 4.0 15:04:32 16° ENE 15:05:03 16° ENE 15:07:45 10° NNE
Cosmos 1812 3.6 15:02:43 10° SSE 15:06:03 29° E 15:08:46 14° NE
Cosmos 1470 Rocket 3.6 15:02:13 10° N 15:06:33 84° W 15:10:53 10° S
H-2A R/B 3.1 15:04:47 10° S 15:08:53 59° WSW 15:12:51 10° NNW
NOAA 11 4.2 15:04:00 10° SSE 15:09:21 62° ENE 15:14:44 10° N
Cosmos 2237 Rocket 4.2 15:05:15 10° W 15:09:30 21° NW 15:13:47 10° N
Cosmos 1461 4.1 15:07:47 10° S 15:11:50 31° ESE 15:14:20 19° ENE
ERS-2 3.1 15:11:16 19° NE 15:12:59 27° E 15:16:09 10° SSE
YAOGAN 6 3.5 15:09:31 10° S 15:13:00 51° W 15:16:31 10° NNW
TELKOM 3 3.5 15:10:53 10° WNW 15:13:40 62° SSW 15:15:13 19° ESE
Cosmos 1515 Rocket 3.5 15:09:48 10° S 15:14:11 77° E 15:18:38 10° NNE
Meteor 2-6 Rocket 4.4 15:09:16 10° SSE 15:14:32 47° E 15:19:42 10° NNE
CZ-4B R/B 3.2 15:09:46 10° SSE 15:15:04 82° WSW 15:20:24 10° NNW
Cosmos 2369 Rocket 2.8 15:09:50 10° NNW 15:15:26 61° WSW 15:20:59 10° S
Cosmos 1943 3.2 15:10:20 10° SSW 15:15:55 63° ESE 15:21:07 12° NE
X-37B 1.4 15:12:54 10° WSW 15:15:58 44° S 15:18:02 18° ESE
Cosmos 1603 3.6 15:11:13 10° SSW 15:16:48 72° ESE 15:22:05 12° NNE
Cosmos 1238 Rocket 3.5 15:14:48 10° N 15:18:58 45° ENE 15:23:57 10° SSE
NOSS 3-2 (C) 4.0 15:15:35 10° S 15:20:38 35° ESE 15:24:06 20° ENE
COSMO-SKYMED 1 3.3 15:21:45 19° NE 15:24:11 33° E 15:28:05 10° SSE
Cosmos 1934 Rocket 4.4 15:18:58 10° N 15:24:54 40° ENE 15:30:45 10° SE
Cosmos 1680 Rocket 3.8 15:21:52 10° S 15:26:54 46° ESE 15:30:34 18° NE
Cosmos 44 Rocket 3.6 15:22:57 10° NW 15:28:08 76° SW 15:33:20 10° SSE
H-2A R/B 2.9 15:30:15 23° E 15:31:35 26° ENE 15:35:44 10° N
Meteor 1-5 Rocket 4.2 15:26:43 10° N 15:32:37 79° ENE 15:38:18 10° SSE
MOS 1 Rocket 4.5 15:33:39 25° ENE 15:35:01 28° E 15:39:31 10° SSE
Cosmos 304 Rocket 4.4 15:31:43 10° N 15:36:05 33° ENE 15:37:28 28° E
Cosmos 1933 Rocket 4.1 15:31:49 10° NNW 15:36:15 62° W 15:40:37 10° S
Cosmos 1536 4.3 15:32:50 10° N 15:34:36 21° NNE 15:34:36 21° NNE
Meteor 1-11 Rocket 3.9 15:31:26 10° N 15:37:11 56° ENE 15:42:59 10° SSE
CZ-2D R/B 3.4 15:34:38 10° SE 15:38:19 46° ENE 15:42:02 10° N
CZ-4B R/B 1.1 15:37:34 34° NNE 15:38:48 69° ESE 15:42:00 10° S
CZ-2C R/B 3.2 15:36:19 10° SE 15:40:53 41° ENE 15:45:21 10° N
Cosmos 1371 Rocket 3.9 15:36:43 10° NNW 15:41:54 63° ENE 15:47:05 10° SE
NOSS 3-2 (A) 3.3 15:37:22 10° SSW 15:43:02 77° SE 15:47:10 23° NE
Meteor 1-4 Rocket 4.4 15:41:38 10° SW 15:44:45 29° WNW 15:47:51 10° N
Nadezhda 3 Rocket 3.9 15:38:32 10° S 15:44:52 74° E 15:51:13 10° NNE
Cosmos 1656 Rocket 4.2 15:41:36 10° NNW 15:47:08 60° WSW 15:52:34 10° S
Cosmos 2228 Rocket 3.0 15:42:48 10° S 15:47:19 82° E 15:51:28 12° NNE
Cosmos 2056 Rocket 3.5 15:42:28 10° NNW 15:47:46 63° ENE 15:53:06 10° SE
Cosmos 1821 Rocket 4.0 15:41:55 10° N 15:48:15 89° WSW 15:54:36 10° S
SAR-Lupe-4 4.0 15:48:48 42° ESE 15:48:48 42° ESE 15:51:56 10° S
H-2A R/B 3.2 15:44:32 10° N 15:48:33 42° WNW 15:52:38 10° SW
Cosmos 2112 Rocket 4.0 15:43:32 10° S 15:48:44 60° ESE 15:51:41 26° NE
USA 215 4.3 15:49:29 24° ESE 15:51:02 26° SE 15:56:18 10° S
USA 281 3.4 15:46:12 10° SE 15:52:27 49° NE 15:58:45 10° NNW
Cosmos 1666 2.5 15:48:44 10° N 15:52:35 74° ENE 15:56:27 10° SSE
Cosmos 1939 Rocket 2.9 15:52:10 10° S 15:56:05 79° WSW 16:00:05 10° NNW
Cosmos 1500 4.3 15:54:05 10° NNW 15:57:46 45° W 16:01:26 10° SSW
Cosmos 1452 Rocket 4.4 15:55:25 10° N 15:59:18 31° NE 15:59:18 31° NE
IRS-1C Rocket 4.0 15:56:00 10° SSE 16:01:17 88° ENE 16:06:37 10° NNW
Cosmos 1624 Rocket 3.9 15:58:16 10° NNW 16:03:37 84° ENE 16:08:52 10° SSE
USA 238 DEB 3.6 15:58:17 10° SW 16:04:54 89° SE 16:08:41 29° NE
USA 238 3.6 15:58:22 10° SW 16:05:00 89° SE 16:08:46 29° NE
SAR-Lupe-1 4.4 16:06:03 52° SSE 16:06:03 52° SSE 16:08:57 10° S
SL-16 R/B 4.2 16:01:24 10° W 16:05:39 21° NW 16:09:55 10° N
Cosmos 1697 Rocket 4.4 16:01:49 10° N 16:04:22 17° NNE 16:04:22 17° NNE
Cosmos 1437 Rocket 2.6 16:02:38 10° S 16:06:25 70° ESE 16:06:25 70° ESE
CZ-4 R/B 1.3 16:06:46 64° NE 16:06:46 64° NE 16:10:39 10° N
Cosmos 158 Rocket 4.2 16:03:43 10° SSW 16:08:36 65° WNW 16:11:34 23° NNE
Helios 1A Rocket 3.6 16:11:13 40° N 16:11:13 40° N 16:13:57 10° N
Cosmos 371 Rocket 3.5 16:06:53 10° NNW 16:11:46 71° WSW 16:16:35 10° SSE
Cosmos 1869 Rocket 4.0 16:07:23 10° NNW 16:11:50 63° W 16:16:13 10° S
USA 276 3.7 16:09:07 10° SW 16:11:06 29° SSW 16:11:06 29° SSW
SKYMED 2 3.5 16:10:23 32° N 16:12:24 84° WNW 16:16:45 10° SSW
Meteor 1-27 Rocket 3.5 16:09:01 10° S 16:14:31 72° E 16:17:46 26° NNE
Okean O Rocket 4.0 16:11:29 10° SSW 16:15:02 24° W 16:18:38 10° NW
Cosmos 1420 Rocket 3.9 16:10:26 10° NNW 16:15:38 64° ENE 16:16:37 53° ESE
SL-8 R/B 4.3 16:16:17 10° SW 16:20:36 41° SSE 16:20:36 41° SSE
Okean-O 2.6 16:19:09 10° SSE 16:23:34 85° WSW 16:28:02 10° NNW
CSL-04 Debris 4.1 16:24:13 55° ESE 16:25:05 64° ENE 16:30:31 10° N
USA 267 3.4 16:23:58 46° ENE 16:25:32 56° NNE 16:31:54 10° NW
ATLAS 3B R/B 3.6 16:21:14 10° S 16:25:07 27° SE 16:25:07 27° SE
PSLV R/B 4.3 16:29:40 56° SSW 16:29:40 56° SSW 16:32:55 10° SSW
Lacrosse 5 rocket 3.3 16:26:09 10° NW 16:27:42 18° NNW 16:27:42 18° NNW
Lacrosse 4 Rocket 1.7 16:27:41 10° SW 16:31:32 60° WNW 16:31:32 60° WNW
CSL-04 Rocket 3.7 16:35:42 58° NNE 16:35:42 58° NNE 16:40:05 10° N
Cosmos 1605 Rocket 3.8 16:29:19 10° N 16:35:27 80° E 16:41:35 10° SSE
ISS -1.6 16:34:47 10° W 16:37:02 25° WSW 16:37:02 25° WSW
Cosmos 2084 3.9 16:33:39 10° SW 16:37:35 58° WNW 16:37:35 58° WNW
YAOGAN 1 3.3 16:41:42 48° NW 16:41:42 48° NW 16:44:59 10° NNW
Cosmos 1339 Rocket 4.4 16:37:50 10° S 16:44:06 86° E 16:47:25 31° N
ERS-2 4.1 16:45:51 24° NW 16:46:27 26° WNW 16:49:32 10° WSW
Cosmos 1980 Rocket 4.3 16:43:02 10° N 16:44:07 14° N 16:44:07 14° N
CENTAUR R/B 2.7 16:42:32 10° SW 16:48:35 72° NW 16:50:21 51° NNE
Cosmos 1461 4.0 16:46:18 10° WSW 16:50:43 46° NW 16:50:43 46° NW
ARGOS 4.0 16:53:15 40° N 16:53:15 40° N 16:56:37 10° NNW
X-37B 3.7 16:49:32 10° WSW 16:50:19 15° WSW 16:50:19 15° WSW
COSMO-SKYMED 1 4.4 16:58:58 25° NW 17:00:16 29° WNW 17:04:02 10° SW
Gblst 52 Del rocket 4.5 17:01:10 10° WSW 17:06:32 66° WSW 17:06:32 66° WSW
H-2A R/B 2.7 17:10:51 50° W 17:10:51 50° W 17:15:43 10° NNW
NOSS 3-2 (C) 3.9 17:05:31 10° WSW 17:11:12 55° NW 17:11:34 55° NNW
MOS 1 Rocket 4.4 17:12:57 48° NW 17:13:28 50° WNW 17:18:34 10° SW
USA 215 3.9 17:36:51 46° SW 17:36:51 46° SW 17:41:16 10° SW
USA 281 4.3 17:33:04 21° SSW 17:37:03 41° WSW 17:43:13 10° NW
USA 267 4.5 18:11:20 36° WNW 18:11:20 36° WNW 18:15:02 10° WNW
